Aviation Digital Data Service (ADDS)

Output produced by METARs form (1709 UTC 24 April 2017)
found at http://www.aviationweather.gov/adds/metars/
 
ORBD 241655Z 29002KT 9999 SCT065 23/03 A2987 RMK DU SCT065 SLP114 WND DATA/ALSTG/SLP ESTMD
TAF ORBD 2411/2517 31010KT 8000 DU SCT060 BKN220 QNH2981INS WND 260V350 
     TEMPO 2411/2415 32015G20KT 4000 BLDU SCT000 BLDU SCT000 
     BECMG 2508/2509 32010G15KT 9999 NSW FEW250 QNH2988INS WND 270V350 WND VRB06KT AFT 2515 TX31/2512Z TN17/2504Z
       
ORBI 241700Z 31005KT 9999 SCT030 24/03 Q1011 NOSIG
TAF ORBI 241000Z 2412/2512 31018KT 6000 SCT030 
     BECMG 2416/2418 31008KT 8000 NSC
       
ORER 241600Z 27007KT CAVOK 18/08 Q1013 NOSIG
TAF ORER 241000Z 2412/2512 VRB03KT 8000 NSC
       
ORMM 241600Z 09006KT 5000 DU SCT040 36/04 Q1006 NOSIG
TAF ORMM 241000Z 2412/2512 34008KT 5000 DU FEW040 SCT080 
     BECMG 2416/2418 16008KT 8000
       
ORNI 241600Z 35016KT 7000 FEW040 27/05 Q1010 NOSIG
TAF ORNI 241000Z 2412/2512 36018KT 7000 BKN040 
     BECMG 2420/2422 30008KT CAVOK
       
ORSU 241700Z 32005KT 6000 NSC 16/09 Q1015
TAF ORSU 241700Z 2418/2518 32006KT 7000 NSC 
     BECMG 2423/2501 04012KT 8000 
     BECMG 2508/2510 29010KT 9999 FEW045 SCT080
       
ORBD 241655Z 29002KT 9999 SCT065 23/03 A2987 RMK DU SCT065 SLP114 WND DATA/ALSTG/SLP ESTMD
TAF ORBD 2411/2517 31010KT 8000 DU SCT060 BKN220 QNH2981INS WND 260V350 
     TEMPO 2411/2415 32015G20KT 4000 BLDU SCT000 BLDU SCT000 
     BECMG 2508/2509 32010G15KT 9999 NSW FEW250 QNH2988INS WND 270V350 WND VRB06KT AFT 2515 TX31/2512Z TN17/2504Z
       
ORBI 241700Z 31005KT 9999 SCT030 24/03 Q1011 NOSIG
TAF ORBI 241000Z 2412/2512 31018KT 6000 SCT030 
     BECMG 2416/2418 31008KT 8000 NSC
       
ORER 241600Z 27007KT CAVOK 18/08 Q1013 NOSIG
TAF ORER 241000Z 2412/2512 VRB03KT 8000 NSC
       
ORMM 241600Z 09006KT 5000 DU SCT040 36/04 Q1006 NOSIG
TAF ORMM 241000Z 2412/2512 34008KT 5000 DU FEW040 SCT080 
     BECMG 2416/2418 16008KT 8000
       
ORNI 241600Z 35016KT 7000 FEW040 27/05 Q1010 NOSIG
TAF ORNI 241000Z 2412/2512 36018KT 7000 BKN040 
     BECMG 2420/2422 30008KT CAVOK
       
ORSU 241700Z 32005KT 6000 NSC 16/09 Q1015
TAF ORSU 241700Z 2418/2518 32006KT 7000 NSC 
     BECMG 2423/2501 04012KT 8000 
     BECMG 2508/2510 29010KT 9999 FEW045 SCT080
       
ORBD 241655Z 29002KT 9999 SCT065 23/03 A2987 RMK DU SCT065 SLP114 WND DATA/ALSTG/SLP ESTMD
TAF ORBD 2411/2517 31010KT 8000 DU SCT060 BKN220 QNH2981INS WND 260V350 
     TEMPO 2411/2415 32015G20KT 4000 BLDU SCT000 BLDU SCT000 
     BECMG 2508/2509 32010G15KT 9999 NSW FEW250 QNH2988INS WND 270V350 WND VRB06KT AFT 2515 TX31/2512Z TN17/2504Z
       
ORBI 241700Z 31005KT 9999 SCT030 24/03 Q1011 NOSIG
TAF ORBI 241000Z 2412/2512 31018KT 6000 SCT030 
     BECMG 2416/2418 31008KT 8000 NSC
       
ORER 241600Z 27007KT CAVOK 18/08 Q1013 NOSIG
TAF ORER 241000Z 2412/2512 VRB03KT 8000 NSC
       
ORMM 241600Z 09006KT 5000 DU SCT040 36/04 Q1006 NOSIG
TAF ORMM 241000Z 2412/2512 34008KT 5000 DU FEW040 SCT080 
     BECMG 2416/2418 16008KT 8000
       
ORNI 241600Z 35016KT 7000 FEW040 27/05 Q1010 NOSIG
TAF ORNI 241000Z 2412/2512 36018KT 7000 BKN040 
     BECMG 2420/2422 30008KT CAVOK
       
ORSU 241700Z 32005KT 6000 NSC 16/09 Q1015
TAF ORSU 241700Z 2418/2518 32006KT 7000 NSC 
     BECMG 2423/2501 04012KT 8000 
     BECMG 2508/2510 29010KT 9999 FEW045 SCT080
       
ORBD 241655Z 29002KT 9999 SCT065 23/03 A2987 RMK DU SCT065 SLP114 WND DATA/ALSTG/SLP ESTMD
TAF ORBD 2411/2517 31010KT 8000 DU SCT060 BKN220 QNH2981INS WND 260V350 
     TEMPO 2411/2415 32015G20KT 4000 BLDU SCT000 BLDU SCT000 
     BECMG 2508/2509 32010G15KT 9999 NSW FEW250 QNH2988INS WND 270V350 WND VRB06KT AFT 2515 TX31/2512Z TN17/2504Z
       
ORBI 241700Z 31005KT 9999 SCT030 24/03 Q1011 NOSIG
TAF ORBI 241000Z 2412/2512 31018KT 6000 SCT030 
     BECMG 2416/2418 31008KT 8000 NSC
       
ORER 241600Z 27007KT CAVOK 18/08 Q1013 NOSIG
TAF ORER 241000Z 2412/2512 VRB03KT 8000 NSC
       
ORMM 241600Z 09006KT 5000 DU SCT040 36/04 Q1006 NOSIG
TAF ORMM 241000Z 2412/2512 34008KT 5000 DU FEW040 SCT080 
     BECMG 2416/2418 16008KT 8000
       
ORNI 241600Z 35016KT 7000 FEW040 27/05 Q1010 NOSIG
TAF ORNI 241000Z 2412/2512 36018KT 7000 BKN040 
     BECMG 2420/2422 30008KT CAVOK
       
ORSU 241700Z 32005KT 6000 NSC 16/09 Q1015
TAF ORSU 241700Z 2418/2518 32006KT 7000 NSC 
     BECMG 2423/2501 04012KT 8000 
     BECMG 2508/2510 29010KT 9999 FEW045 SCT080
       
ORBD 241655Z 29002KT 9999 SCT065 23/03 A2987 RMK DU SCT065 SLP114 WND DATA/ALSTG/SLP ESTMD
TAF ORBD 2411/2517 31010KT 8000 DU SCT060 BKN220 QNH2981INS WND 260V350 
     TEMPO 2411/2415 32015G20KT 4000 BLDU SCT000 BLDU SCT000 
     BECMG 2508/2509 32010G15KT 9999 NSW FEW250 QNH2988INS WND 270V350 WND VRB06KT AFT 2515 TX31/2512Z TN17/2504Z
       
ORBI 241700Z 31005KT 9999 SCT030 24/03 Q1011 NOSIG
TAF ORBI 241000Z 2412/2512 31018KT 6000 SCT030 
     BECMG 2416/2418 31008KT 8000 NSC
       
ORER 241600Z 27007KT CAVOK 18/08 Q1013 NOSIG
TAF ORER 241000Z 2412/2512 VRB03KT 8000 NSC
       
ORMM 241600Z 09006KT 5000 DU SCT040 36/04 Q1006 NOSIG
TAF ORMM 241000Z 2412/2512 34008KT 5000 DU FEW040 SCT080 
     BECMG 2416/2418 16008KT 8000
       
ORNI 241600Z 35016KT 7000 FEW040 27/05 Q1010 NOSIG
TAF ORNI 241000Z 2412/2512 36018KT 7000 BKN040 
     BECMG 2420/2422 30008KT CAVOK
       
ORSU 241700Z 32005KT 6000 NSC 16/09 Q1015
TAF ORSU 241700Z 2418/2518 32006KT 7000 NSC 
     BECMG 2423/2501 04012KT 8000 
     BECMG 2508/2510 29010KT 9999 FEW045 SCT080
       
ORMM 241600Z 09006KT 5000 DU SCT040 36/04 Q1006 NOSIG
TAF ORMM 241000Z 2412/2512 34008KT 5000 DU FEW040 SCT080 
     BECMG 2416/2418 16008KT 8000
       
ORBD 241655Z 29002KT 9999 SCT065 23/03 A2987 RMK DU SCT065 SLP114 WND DATA/ALSTG/SLP ESTMD
TAF ORBD 2411/2517 31010KT 8000 DU SCT060 BKN220 QNH2981INS WND 260V350 
     TEMPO 2411/2415 32015G20KT 4000 BLDU SCT000 BLDU SCT000 
     BECMG 2508/2509 32010G15KT 9999 NSW FEW250 QNH2988INS WND 270V350 WND VRB06KT AFT 2515 TX31/2512Z TN17/2504Z
       
ORBI 241700Z 31005KT 9999 SCT030 24/03 Q1011 NOSIG
TAF ORBI 241000Z 2412/2512 31018KT 6000 SCT030 
     BECMG 2416/2418 31008KT 8000 NSC
       
ORER 241600Z 27007KT CAVOK 18/08 Q1013 NOSIG
TAF ORER 241000Z 2412/2512 VRB03KT 8000 NSC
       
ORMM 241600Z 09006KT 5000 DU SCT040 36/04 Q1006 NOSIG
TAF ORMM 241000Z 2412/2512 34008KT 5000 DU FEW040 SCT080 
     BECMG 2416/2418 16008KT 8000
       
ORNI 241600Z 35016KT 7000 FEW040 27/05 Q1010 NOSIG
TAF ORNI 241000Z 2412/2512 36018KT 7000 BKN040 
     BECMG 2420/2422 30008KT CAVOK
       
ORSU 241700Z 32005KT 6000 NSC 16/09 Q1015
TAF ORSU 241700Z 2418/2518 32006KT 7000 NSC 
     BECMG 2423/2501 04012KT 8000 
     BECMG 2508/2510 29010KT 9999 FEW045 SCT080
       
ORBD 241655Z 29002KT 9999 SCT065 23/03 A2987 RMK DU SCT065 SLP114 WND DATA/ALSTG/SLP ESTMD
TAF ORBD 2411/2517 31010KT 8000 DU SCT060 BKN220 QNH2981INS WND 260V350 
     TEMPO 2411/2415 32015G20KT 4000 BLDU SCT000 BLDU SCT000 
     BECMG 2508/2509 32010G15KT 9999 NSW FEW250 QNH2988INS WND 270V350 WND VRB06KT AFT 2515 TX31/2512Z TN17/2504Z
       
ORBI 241700Z 31005KT 9999 SCT030 24/03 Q1011 NOSIG
TAF ORBI 241000Z 2412/2512 31018KT 6000 SCT030 
     BECMG 2416/2418 31008KT 8000 NSC
       
ORER 241600Z 27007KT CAVOK 18/08 Q1013 NOSIG
TAF ORER 241000Z 2412/2512 VRB03KT 8000 NSC
       
ORMM 241600Z 09006KT 5000 DU SCT040 36/04 Q1006 NOSIG
TAF ORMM 241000Z 2412/2512 34008KT 5000 DU FEW040 SCT080 
     BECMG 2416/2418 16008KT 8000
       
ORNI 241600Z 35016KT 7000 FEW040 27/05 Q1010 NOSIG
TAF ORNI 241000Z 2412/2512 36018KT 7000 BKN040 
     BECMG 2420/2422 30008KT CAVOK
       
ORSU 241700Z 32005KT 6000 NSC 16/09 Q1015
TAF ORSU 241700Z 2418/2518 32006KT 7000 NSC 
     BECMG 2423/2501 04012KT 8000 
     BECMG 2508/2510 29010KT 9999 FEW045 SCT080
       
ORBD 241655Z 29002KT 9999 SCT065 23/03 A2987 RMK DU SCT065 SLP114 WND DATA/ALSTG/SLP ESTMD
TAF ORBD 2411/2517 31010KT 8000 DU SCT060 BKN220 QNH2981INS WND 260V350 
     TEMPO 2411/2415 32015G20KT 4000 BLDU SCT000 BLDU SCT000 
     BECMG 2508/2509 32010G15KT 9999 NSW FEW250 QNH2988INS WND 270V350 WND VRB06KT AFT 2515 TX31/2512Z TN17/2504Z
       
ORBI 241700Z 31005KT 9999 SCT030 24/03 Q1011 NOSIG
TAF ORBI 241000Z 2412/2512 31018KT 6000 SCT030 
     BECMG 2416/2418 31008KT 8000 NSC
       
ORER 241600Z 27007KT CAVOK 18/08 Q1013 NOSIG
TAF ORER 241000Z 2412/2512 VRB03KT 8000 NSC
       
ORMM 241600Z 09006KT 5000 DU SCT040 36/04 Q1006 NOSIG
TAF ORMM 241000Z 2412/2512 34008KT 5000 DU FEW040 SCT080 
     BECMG 2416/2418 16008KT 8000
       
ORNI 241600Z 35016KT 7000 FEW040 27/05 Q1010 NOSIG
TAF ORNI 241000Z 2412/2512 36018KT 7000 BKN040 
     BECMG 2420/2422 30008KT CAVOK
       
ORSU 241700Z 32005KT 6000 NSC 16/09 Q1015
TAF ORSU 241700Z 2418/2518 32006KT 7000 NSC 
     BECMG 2423/2501 04012KT 8000 
     BECMG 2508/2510 29010KT 9999 FEW045 SCT080
       
ORBD 241655Z 29002KT 9999 SCT065 23/03 A2987 RMK DU SCT065 SLP114 WND DATA/ALSTG/SLP ESTMD
TAF ORBD 2411/2517 31010KT 8000 DU SCT060 BKN220 QNH2981INS WND 260V350 
     TEMPO 2411/2415 32015G20KT 4000 BLDU SCT000 BLDU SCT000 
     BECMG 2508/2509 32010G15KT 9999 NSW FEW250 QNH2988INS WND 270V350 WND VRB06KT AFT 2515 TX31/2512Z TN17/2504Z
       
ORBI 241700Z 31005KT 9999 SCT030 24/03 Q1011 NOSIG
TAF ORBI 241000Z 2412/2512 31018KT 6000 SCT030 
     BECMG 2416/2418 31008KT 8000 NSC
       
ORER 241600Z 27007KT CAVOK 18/08 Q1013 NOSIG
TAF ORER 241000Z 2412/2512 VRB03KT 8000 NSC
       
ORMM 241600Z 09006KT 5000 DU SCT040 36/04 Q1006 NOSIG
TAF ORMM 241000Z 2412/2512 34008KT 5000 DU FEW040 SCT080 
     BECMG 2416/2418 16008KT 8000
       
ORNI 241600Z 35016KT 7000 FEW040 27/05 Q1010 NOSIG
TAF ORNI 241000Z 2412/2512 36018KT 7000 BKN040 
     BECMG 2420/2422 30008KT CAVOK
       
ORSU 241700Z 32005KT 6000 NSC 16/09 Q1015
TAF ORSU 241700Z 2418/2518 32006KT 7000 NSC 
     BECMG 2423/2501 04012KT 8000 
     BECMG 2508/2510 29010KT 9999 FEW045 SCT080